| time (UTC) | temp C | wind direction | speed KPH | gust KPH | rain 1hr cm | rain 24hr cm | rain mn cm | humidity % | barometer mb |
| 20260903134535 | 17 | 229 | 8.0 | 19.3 | 0.03 | 0.53 | 0.53 | 95 | 1004.5 |
| 20260903133015 | 17 | 219 | 11.3 | 24.1 | 0.20 | 0.53 | 0.53 | 95 | 1004.6 |
| 20260903131513 | 17 | 175 | 8.0 | 12.9 | 0.38 | 0.53 | 0.53 | 95 | 1004.8 |
| 20260903130013 | 17 | 157 | 6.4 | 16.1 | 0.38 | 0.51 | 0.51 | 95 | 1004.8 |
| 20260903124509 | 16 | 174 | 9.7 | 14.5 | 0.41 | 0.51 | 0.51 | 95 | 1005.0 |
| 20260903123019 | 16 | 176 | 8.0 | 12.9 | 0.23 | 0.33 | 0.33 | 94 | 1005.3 |
| 20260903121508 | 16 | 160 | 4.8 | 11.3 | 0.05 | 0.15 | 0.15 | 94 | 1005.2 |
| 20260903120004 | 16 | 167 | 3.2 | 9.7 | 0.03 | 0.18 | 0.15 | 94 | 1005.4 |
| 20260903114604 | 16 | 221 | 8.0 | 12.9 | 0.00 | 0.15 | 0.13 | 94 | 1005.9 |
| 20260903113100 | 16 | 169 | 11.3 | 16.1 | 0.00 | 0.15 | 0.13 | 94 | 1006.0 |
| 20260903111559 | 16 | 186 | 9.7 | 17.7 | 0.00 | 0.15 | 0.13 | 94 | 1006.2 |
| 20260903110058 | 16 | 180 | 8.0 | 17.7 | 0.00 | 0.15 | 0.13 | 94 | 1006.2 |
| 20260903104605 | 16 | 182 | 11.3 | 16.1 | 0.00 | 0.15 | 0.13 | 94 | 1006.4 |
| 20260903103055 | 16 | 175 | 9.7 | 16.1 | 0.00 | 0.15 | 0.13 | 94 | 1006.6 |
| 20260903101553 | 16 | 185 | 6.4 | 14.5 | 0.00 | 0.15 | 0.13 | 94 | 1006.9 |
| 20260903100052 | 16 | 212 | 8.0 | 16.1 | 0.03 | 0.15 | 0.13 | 94 | 1007.1 |
| 20260903094558 | 16 | 179 | 11.3 | 19.3 | 0.03 | 0.15 | 0.13 | 94 | 1007.3 |
| 20260903093055 | 16 | 187 | 11.3 | 16.1 | 0.03 | 0.15 | 0.13 | 94 | 1007.3 |
| 20260903091547 | 16 | 194 | 9.7 | 17.7 | 0.00 | 0.15 | 0.10 | 94 | 1007.6 |
| 20260903090045 | 16 | 196 | 8.0 | 17.7 | 0.00 | 0.15 | 0.10 | 94 | 1008.0 |
| 20260903084542 | 15 | 171 | 8.0 | 16.1 | 0.00 | 0.15 | 0.10 | 95 | 1008.3 |
| 20260903083040 | 16 | 185 | 4.8 | 11.3 | 0.00 | 0.15 | 0.10 | 95 | 1008.4 |
| 20260903081542 | 15 | 180 | 1.6 | 4.8 | 0.00 | 0.15 | 0.10 | 95 | 1008.6 |
| 20260903080036 | 15 | 207 | 1.6 | 12.9 | 0.03 | 0.15 | 0.10 | 95 | 1008.7 |
| 20260903074534 | 15 | 194 | 8.0 | 12.9 | 0.05 | 0.15 | 0.10 | 95 | 1008.8 |
| 20260903073033 | 15 | 204 | 4.8 | 9.7 | 0.05 | 0.15 | 0.10 | 95 | 1009.0 |
| 20260903071526 | 15 | 182 | 3.2 | 9.7 | 0.05 | 0.15 | 0.10 | 95 | 1009.1 |
| 20260903070023 | 14 | 161 | 1.6 | 6.4 | 0.05 | 0.13 | 0.08 | 95 | 1009.3 |
| 20260903064521 | 13 | 160 | 0.0 | 3.2 | 0.03 | 0.10 | 0.05 | 95 | 1009.5 |
| 20260903063017 | 13 | 164 | 0.0 | 1.6 | 0.03 | 0.10 | 0.05 | 95 | 1009.6 |
| 20260903061515 | 13 | 163 | 0.0 | 8.0 | 0.05 | 0.10 | 0.05 | 95 | 1009.7 |
| 20260903060014 | 13 | 157 | 0.0 | 3.2 | 0.03 | 0.08 | 0.05 | 95 | 1009.9 |
| 20260903054511 | 12 | 163 | 0.0 | 3.2 | 0.03 | 0.08 | 0.05 | 95 | 1010.1 |
| 20260903053009 | 12 | 169 | 0.0 | 1.6 | 0.03 | 0.08 | 0.05 | 95 | 1010.2 |
| 20260903051504 | 12 | 169 | 0.0 | 1.6 | 0.00 | 0.05 | 0.03 | 95 | 1010.3 |
| 20260903050003 | 12 | 170 | 0.0 | 3.2 | 0.00 | 0.05 | 0.03 | 95 | 1010.5 |
| 20260903044502 | 12 | 170 | 0.0 | 1.6 | 0.00 | 0.05 | 0.03 | 94 | 1010.6 |
| 20260903043002 | 12 | 170 | 0.0 | 1.6 | 0.00 | 0.05 | 0.03 | 94 | 1010.7 |
| 20260903041558 | 12 | 170 | 0.0 | 6.4 | 0.00 | 0.05 | 0.03 | 94 | 1010.9 |
| 20260903040103 | 12 | 177 | 3.2 | 8.0 | 0.00 | 0.05 | 0.03 | 94 | 1011.1 |
| 20260903034555 | 12 | 198 | 1.6 | 4.8 | 0.03 | 0.08 | 0.03 | 94 | 1011.3 |
| 20260903033053 | 12 | 202 | 3.2 | 8.0 | 0.03 | 0.08 | 0.03 | 94 | 1011.6 |
| 20260903031557 | 12 | 204 | 4.8 | 8.0 | 0.03 | 0.08 | 0.03 | 94 | 1011.8 |
| 20260903030051 | 12 | 198 | 1.6 | 4.8 | 0.03 | 0.08 | 0.03 | 94 | 1011.6 |
| 20260903024550 | 12 | 203 | 1.6 | 6.4 | 0.00 | 0.05 | 0.00 | 94 | 1011.7 |
| 20260903023102 | 12 | 205 | 1.6 | 6.4 | 0.00 | 0.05 | 0.00 | 94 | 1011.9 |
| 20260903021548 | 11 | 204 | 3.2 | 8.0 | 0.00 | 0.05 | 0.00 | 94 | 1012.0 |
| 20260903020044 | 11 | 212 | 1.6 | 4.8 | 0.00 | 0.05 | 0.00 | 94 | 1012.2 |
| 20260903014543 | 11 | 217 | 1.6 | 3.2 | 0.00 | 0.05 | 0.00 | 94 | 1012.3 |
| 20260903013042 | 11 | 217 | 0.0 | 4.8 | 0.00 | 0.05 | 0.00 | 94 | 1012.5 |
| 20260903011540 | 11 | 217 | 1.6 | 4.8 | 0.00 | 0.05 | 0.00 | 93 | 1012.7 |
| 20260903010039 | 11 | 215 | 1.6 | 4.8 | 0.00 | 0.05 | 0.00 | 93 | 1012.7 |
| 20260903004538 | 11 | 215 | 3.2 | 6.4 | 0.00 | 0.05 | 0.00 | 93 | 1012.9 |
| 20260903003041 | 11 | 217 | 3.2 | 6.4 | 0.00 | 0.05 | 0.00 | 93 | 1013.1 |
| 20260903001537 | 11 | 219 | 3.2 | 6.4 | 0.00 | 0.05 | 0.00 | 93 | 1013.0 |
| 20260903000036 | 11 | 227 | 3.2 | 4.8 | 0.00 | 0.05 | 0.00 | 92 | 1013.0 |
| 20260902234534 | 11 | 230 | 1.6 | 6.4 | 0.00 | 0.05 | 0.00 | 92 | 1013.0 |
| 20260902233033 | 11 | 240 | 1.6 | 6.4 | 0.00 | 0.05 | 0.00 | 92 | 1013.1 |
| 20260902231550 | 11 | 231 | 3.2 | 8.0 | 0.00 | 0.05 | 0.00 | 92 | 1013.2 |
| 20260902230031 | 11 | 226 | 3.2 | 6.4 | 0.00 | 0.05 | 0.00 | 92 | 1013.3 |
| 20260902224528 | 11 | 230 | 4.8 | 8.0 | 0.00 | 0.05 | 0.00 | 91 | 1013.4 |
| 20260902223027 | 11 | 227 | 3.2 | 8.0 | 0.00 | 0.05 | 0.00 | 91 | 1013.4 |
| 20260902221525 | 11 | 227 | 4.8 | 8.0 | 0.00 | 0.05 | 0.00 | 91 | 1013.4 |
| 20260902220023 | 11 | 230 | 3.2 | 6.4 | 0.00 | 0.05 | 0.00 | 90 | 1013.5 |
| 20260902214522 | 11 | 237 | 1.6 | 6.4 | 0.00 | 0.05 | 0.05 | 90 | 1013.4 |
| 20260902213022 | 11 | 242 | 3.2 | 6.4 | 0.00 | 0.05 | 0.05 | 89 | 1013.4 |
| 20260902211520 | 11 | 227 | 3.2 | 8.0 | 0.00 | 0.05 | 0.05 | 89 | 1013.4 |
| 20260902210020 | 12 | 253 | 4.8 | 9.7 | 0.00 | 0.05 | 0.05 | 88 | 1013.4 |
| 20260902204517 | 12 | 238 | 3.2 | 8.0 | 0.00 | 0.05 | 0.05 | 88 | 1013.5 |
| 20260902203015 | 12 | 253 | 6.4 | 11.3 | 0.00 | 0.05 | 0.05 | 87 | 1013.5 |
| 20260902201520 | 12 | 236 | 4.8 | 8.0 | 0.00 | 0.05 | 0.05 | 87 | 1013.5 |
| 20260902200019 | 12 | 248 | 3.2 | 8.0 | 0.00 | 0.05 | 0.05 | 86 | 1013.5 |
| 20260902194516 | 13 | 250 | 3.2 | 9.7 | 0.00 | 0.05 | 0.05 | 85 | 1013.4 |
| 20260902193013 | 13 | 253 | 3.2 | 9.7 | 0.00 | 0.05 | 0.05 | 84 | 1013.4 |
| 20260902191516 | 13 | 264 | 6.4 | 12.9 | 0.00 | 0.05 | 0.05 | 84 | 1013.5 |
| 20260902190014 | 13 | 254 | 3.2 | 11.3 | 0.00 | 0.05 | 0.05 | 83 | 1013.6 |
| 20260902184512 | 13 | 258 | 4.8 | 11.3 | 0.00 | 0.05 | 0.05 | 82 | 1013.6 |
| 20260902183010 | 14 | 274 | 4.8 | 11.3 | 0.00 | 0.05 | 0.05 | 82 | 1013.4 |
| 20260902181509 | 15 | 279 | 8.0 | 12.9 | 0.00 | 0.05 | 0.05 | 81 | 1013.3 |
| 20260902180008 | 15 | 286 | 6.4 | 12.9 | 0.00 | 0.05 | 0.05 | 80 | 1013.1 |
| 20260902174506 | 16 | 296 | 9.7 | 20.9 | 0.00 | 0.05 | 0.05 | 78 | 1012.9 |
| 20260902173002 | 16 | 297 | 9.7 | 17.7 | 0.00 | 0.05 | 0.05 | 77 | 1012.8 |
| 20260902171603 | 17 | 290 | 11.3 | 22.5 | 0.00 | 0.05 | 0.05 | 75 | 1012.9 |
| 20260902170059 | 17 | 287 | 12.9 | 20.9 | 0.00 | 0.05 | 0.05 | 76 | 1012.7 |
| 20260902164603 | 17 | 294 | 16.1 | 22.5 | 0.00 | 0.05 | 0.05 | 75 | 1012.7 |
| 20260902163102 | 18 | 273 | 16.1 | 25.7 | 0.00 | 0.05 | 0.05 | 76 | 1012.7 |
| 20260902161559 | 18 | 284 | 17.7 | 27.4 | 0.00 | 0.05 | 0.05 | 77 | 1012.7 |
| 20260902160058 | 18 | 292 | 14.5 | 27.4 | 0.00 | 0.05 | 0.05 | 77 | 1012.7 |
| 20260902154608 | 18 | 285 | 20.9 | 30.6 | 0.00 | 0.05 | 0.05 | 77 | 1012.6 |
| 20260902153056 | 18 | 274 | 22.5 | 29.0 | 0.00 | 0.05 | 0.05 | 80 | 1012.6 |
| 20260902151555 | 18 | 305 | 17.7 | 29.0 | 0.00 | 0.05 | 0.05 | 82 | 1012.7 |
| 20260902150055 | 18 | 312 | 19.3 | 27.4 | 0.00 | 0.05 | 0.05 | 81 | 1012.9 |
| 20260902144555 | 18 | 284 | 17.7 | 35.4 | 0.00 | 0.05 | 0.05 | 77 | 1012.9 |
| 20260902143056 | 19 | 277 | 22.5 | 35.4 | 0.00 | 0.05 | 0.05 | 76 | 1012.7 |
| 20260902141554 | 19 | 265 | 20.9 | 37.0 | 0.00 | 0.05 | 0.05 | 76 | 1012.8 |
| 20260902140053 | 19 | 279 | 17.7 | 27.4 | 0.00 | 0.05 | 0.05 | 76 | 1012.6 |